Location: Peterborough
(44.3091°N, 78.3197°W)
Time: 06:15:31
(UTC-04:00)

Vanguard 1 Rocket - Pass Details

Date: 27 March 2023
Orbit: 655 x 4220 km, 34.3° (Epoch: 04 June)

Event Time Altitude Azimuth Distance (km) Brightness Sun altitude
Rises 02:18:04 0° 262° (W) 7,985 12.0 -41.3°
Reaches altitude 10° 02:24:18 10° 260° (W) 6,547 11.5 -40.9°
Enters shadow 02:24:34 11° 259° (W) 6,483 11.4 -40.9°
Maximum altitude 02:42:14 54° 190° (S) 2,576 - -39.6°
Exits shadow 02:49:27 21° 123° (ESE) 3,074 10.0 -39.0°
Drops below altitude 10° 02:51:32 10° 116° (ESE) 3,574 10.4 -38.8°
Sets 02:53:54 0° 111° (ESE) 4,244 10.9 -38.6°
